Hourly Data Report for October 08, 2020

MUSKOKA
ONTARIO
Current Station Operator: NAVCAN

44°58'29.000" N
79°18'12.000" W
281.90 m
6115529
71532
YQA

Download Data

Hourly Data (October 2020)
Hourly Data Report for October 8, 2020
TIME Temp Definition
°C
Dew Point Definition
°C
Rel Hum Definition
%
Wind Dir Definition
10's deg

Wind Spd Definition
km/h
Visibility Definition
km
Stn Press Definition
kPa
Hmdx Definition


Wind Chill Definition


Weather Definition


00:00 2.3 1.6 95 33 5 16.1 97.97     LegendNANA
01:00 3.0 1.4 89 31 11 16.1 98.02     LegendNANA
02:00 1.3 0.9 97 33 5 16.1 98.05     LegendNANA
03:00 1.4 0.8 96 36 8 16.1 98.06     LegendNANA
04:00 2.4 1.4 93 31 9 16.1 98.13     LegendNANA
05:00 0.4 0.1 98   0 16.1 98.17     LegendNANA
06:00 0.5 0.4 99 35 5 16.1 98.20     LegendNANA
07:00 -0.2 -0.3 99   0 16.1 98.28     LegendNANA
08:00 4.2 3.2 93   0 16.1 98.36     LegendNANA
09:00 6.3 2.3 75 32 11 16.1 98.42     Rain
10:00 7.1 2.2 71 31 8 16.1 98.44     LegendNANA
11:00 7.9 3.2 72 30 9 16.1 98.46     LegendNANA
12:00 9.1 3.7 69 28 5 16.1 98.46     LegendNANA
13:00 9.7 3.9 67 30 9 16.1 98.42     LegendNANA
14:00 9.9 4.3 68 27 17 16.1 98.41     LegendNANA
15:00 10.0 5.0 71 25 9 16.1 98.39     LegendNANA
16:00 10.1 5.2 71 28 5 16.1 98.39     LegendNANA
17:00 10.5 4.9 68 31 8 16.1 98.40     LegendNANA
18:00 9.5 5.3 75 29 4 16.1 98.45     LegendNANA
19:00 9.2 5.4 77 29 8 16.1 98.50     LegendNANA
20:00 7.7 5.6 86 29 5 16.1 98.56     LegendNANA
21:00 4.1 3.8 98 LegendMM 4 16.1 98.58     LegendNANA
22:00 2.3 2.2 99   0 4.8 98.60     Fog
23:00 1.4 1.3 99   0 16.1 98.60     LegendNANA

Notes on Data Quality.

Legend

  • E = Estimated
  • M = Missing
  • NA = Not Available*
  • [empty] = Indicates an unobserved value
Date modified: